www.pogodaiklimat.ru

Погода и климат >> Архив погоды >> Норвегия >> Маяк Torungen


ПОГОДА на Маяке Torungen

  • Прогноз погоды на Маяке Torungen
  • Монитор погоды на Маяке Torungen

АРХИВ ПОГОДЫ на Маяке Torungen

Время (UTC), дата Ветер
(напр.,м/с)
 
Видим.   Явления Облачность Т
(С)
Тd
(С)
f
(%)
Тe
(С)
Тes
(С)
Комфортность P
(гПа)
Po
(гПа)
Тmin
(С)
Tmax
(С)
R
(мм)
R24
(мм)
S
(см)
22 10.06 С 1-2
{2}
н/о н/о +11.8 +13 +13 1019.7 1018.2
23 10.06 С 4-5
{5}
н/о н/о +11.4 +10 +10 1019.0 1017.5
00 11.06 С 4-5
{7}
н/о н/о +11.3 +10 +10 1019.1 1017.6
01 11.06 СВ 4-5
{5}
н/о н/о +11.5 +10.6 94 +9 +9 1019.1 1017.6
02 11.06 СВ 3-3
{5}
н/о н/о +11.3 +10 +10 1019.6 1018.1
03 11.06 С 5-6
{6}
н/о н/о +11.3 +10 +10 1019.1 1017.7
04 11.06 СВ 6-8
{8}
н/о н/о +11.2 +9 +9 1019.2 1017.8
05 11.06 С 7-8
{8}
н/о н/о +12.3 +10 +10 1019.1 1017.7
06 11.06 С 7-8
{8}
н/о н/о +12.6 +10.8 89 +10 +10 1019.0 1017.5 +10.8 +13.0
07 11.06 СВ 9-10
{10}
н/о н/о +14.0 +11.2 83 +11 +11 1018.9 1017.5
08 11.06 СВ 9-10
{11}
н/о н/о +14.8 +9.8 72 +12 +12 1019.0 1017.5
09 11.06 СВ 8-11
{11}
н/о н/о +16.4 +10.3 67 +15 +15 1018.8 1017.4
10 11.06 СВ 11-13
{14}
н/о н/о +16.5 +10.8 69 +15 +15 1018.3 1016.9
11 11.06 СВ 12-13
{13}
н/о н/о +16.5 +12.1 75 +14 +14 1018.4 1016.9
12 11.06 СВ 13-15
{16}
н/о н/о +16.1 +11.9 76 +14 +14 1018.0 1016.6 6
13 11.06 СВ 13-16
{16}
н/о н/о +15.9 +12.5 80 +13 +13 1017.8 1016.3
14 11.06 В 12-14
{15}
н/о н/о +14.7 +14.7 100 +12 +12 1018.5 1017.0
15 11.06 СВ 12-14
{15}
н/о н/о +13.9 +11 +11 1018.5 1017.0
16 11.06 СВ 13-16
{16}
н/о н/о +14.2 +12 +12 1018.5 1017.0
17 11.06 СВ 13-16
{17}
н/о н/о +13.6 +11 +11 1018.5 1017.1
18 11.06 СВ 16-19
{19}
н/о н/о +13.5 +10 +10 1018.0 1016.6 +12.6 +17.1 27
19 11.06 СВ 18-22
{23}
н/о н/о +13.7 +10 +10 1017.3 1015.9
20 11.06 СВ 19-23
{24}
н/о н/о +13.5 +10 +10 1017.3 1015.8
21 11.06 СВ 19-24
{25}
н/о н/о +13.1 +9 +9 1017.4 1016.0
22 11.06 СВ 19-23
{26}
н/о н/о +12.8 +9 +9 1018.0 1016.5
23 11.06 СВ 18-22
{25}
н/о н/о +12.1 +8 +8 1018.2 1016.8
00 12.06 СВ 18-23
{26}
н/о н/о +11.9 +8 +8 1018.3 1016.9 27
01 12.06 СВ 16-21
{22}
н/о н/о +11.5 +8 +8 1019.6 1018.1
02 12.06 СВ 17-21
{21}
н/о н/о +12.5 +12.5 100 +8 +8 1019.2 1017.7
03 12.06 СВ 14-20
{23}
н/о н/о +12.1 +9 +9 1019.9 1018.4
04 12.06 СВ 17-23
{23}
н/о н/о +12.4 +12.4 100 +8 +8 1018.8 1017.4
05 12.06 СВ 15-20
{21}
н/о н/о +12.5 +11.2 92 +8 +8 1018.6 1017.1
06 12.06 СВ 12-15
{23}
н/о н/о +12.1 +11.8 98 +8 +8 1019.2 1017.7 +11.3 +13.8 27
07 12.06 СВ 15-19
{21}
н/о н/о +11.8 +8 +8 1018.7 1017.3
08 12.06 СВ 15-18
{24}
н/о н/о +10.9 +7 +7 1018.2 1016.8
09 12.06 СВ 14-17
{20}
н/о н/о +11.3 +8 +8 1017.6 1016.2
10 12.06 С 13-18
{20}
н/о н/о +11.9 +11.3 96 +8 +8 1016.8 1015.3
11 12.06 СВ 14-18
{18}
н/о н/о +12.3 +10.4 88 +8 +8 1018.2 1016.8
12 12.06 СВ 13-18
{24}
н/о н/о +12.6 +9.8 83 +9 +9 1018.2 1016.7 2
13 12.06 СВ 13-16
{19}
н/о н/о +11.1 +8 +8 1017.8 1016.3
14 12.06 С 12-18
{18}
н/о н/о +10.4 +7 +7 1017.4 1015.9
15 12.06 С 11-15
{15}
н/о н/о +10.8 +7 +7 1016.9 1015.4
16 12.06 С 12-16
{17}
н/о н/о +11.1 +8 +8 1015.6 1014.1
17 12.06 СВ 11-15
{17}
н/о н/о +11.3 +8 +8 1015.2 1013.7
18 12.06 СВ 12-17
{19}
н/о н/о +11.0 +8 +8 1014.6 1013.1 +10.4 +12.9 1
19 12.06 СВ 14-17
{17}
н/о н/о +11.0 +7 +7 1014.0 1012.6
20 12.06 СВ 14-18
{18}
н/о н/о +11.0 +7 +7 1013.7 1012.3
21 12.06 СВ 12-16
{19}
н/о н/о +10.3 +7 +7 1013.2 1011.7
22 12.06 СВ 10-12
{15}
н/о н/о +10.5 +7 +7 1013.1 1011.6
23 12.06 СВ 12-14
{14}
н/о н/о +9.9 +6 +6 1011.6 1010.1
00 13.06 СВ 14-16
{19}
н/о н/о +10.5 +7 +7 1010.1 1008.6 12
01 13.06 СВ 13-18
{18}
н/о н/о +10.7 +7 +7 1009.0 1007.6
02 13.06 СВ 12-14
{16}
н/о н/о +11.0 +8 +8 1008.2 1006.8
03 13.06 СВ 9-11
{14}
н/о н/о +10.6 +8 +8 1007.5 1006.1
04 13.06 СВ 8-9
{10}
н/о н/о +10.7 +8 +8 1008.1 1006.7
05 13.06 СВ 9-11
{12}
н/о н/о +10.9 +8 +8 1008.1 1006.7
06 13.06 СВ 9-11
{18}
н/о н/о +10.8 +8 +8 1007.8 1006.4 +9.6 +11.4 13
07 13.06 СВ 7-9
{11}
н/о н/о +11.2 +9 +9 1008.0 1006.6
08 13.06 СВ 7-9
{10}
н/о н/о +11.4 +9 +9 1008.7 1007.2
09 13.06 СВ 7-9
{10}
н/о н/о +11.5 +9 +9 1008.9 1007.5
10 13.06 З 1-2
{9}
н/о н/о +12.3 +13 +13 1009.8 1008.3
11 13.06 ЮЗ 10-12
{14}
н/о н/о +12.4 +10 +10 1010.5 1009.0
12 13.06 ЮЗ 6-8
{14}
н/о н/о +13.2 +12 +12 1011.2 1009.7 10
13 13.06 Ю 5-6
{8}
н/о н/о +13.8 +13 +13 1011.9 1010.5
14 13.06 Ю 3-4
{7}
н/о н/о +14.0 +14 +14 1012.2 1010.8
15 13.06 ЮВ 4-5
{5}
н/о н/о +14.2 +13 +13 1012.4 1010.9
16 13.06 ЮВ 3-4
{5}
н/о н/о +14.0 +14 +14 1013.0 1011.5
17 13.06 ЮВ 7-9
{9}
н/о н/о +13.5 +12 +12 1013.6 1012.2
18 13.06 ЮВ 5-6
{10}
н/о н/о +13.8 +13 +13 1013.9 1012.4 +10.7 +14.7 8
19 13.06 В 4-5
{7}
н/о н/о +13.7 +13 +13 1014.2 1012.8
20 13.06 В 6-7
{7}
н/о н/о +13.4 +12 +12 1014.5 1013.0
21 13.06 СВ 5-6
{7}
н/о н/о +13.5 +12 +12 1015.1 1013.7
22 13.06 СВ 7-8
{8}
н/о н/о +13.5 +12 +12 1015.3 1013.8
23 13.06 СВ 5-6
{8}
н/о н/о +12.8 +11 +11 1015.5 1014.1
00 14.06 СВ 6-7
{8}
н/о н/о +12.8 +11 +11 1015.2 1013.7
01 14.06 СВ 7-9
{9}
н/о н/о +12.7 +11 +11 1015.4 1014.0
02 14.06 СВ 8-9
{9}
н/о н/о +12.5 +10 +10 1015.1 1013.6
03 14.06 СВ 9-11
{12}
н/о н/о +13.1 +11 +11 1014.8 1013.4
04 14.06 СВ 10-12
{12}
н/о н/о +13.3 +11 +11 1014.8 1013.4
05 14.06 СВ 8-10
{12}
н/о н/о +13.4 +11 +11 1015.4 1014.0
06 14.06 В 5-5
{12}
н/о н/о +13.9 +13 +13 1015.7 1014.3 +12.5 +14.2
07 14.06 В 4-5
{6}
н/о н/о +13.9 +13 +13 1015.9 1014.5
08 14.06 ЮВ 6-7
{8}
н/о н/о +14.1 +13 +13 1016.8 1015.3
09 14.06 ЮВ 4-5
{7}
н/о н/о +14.9 +14 +14 1017.2 1015.8
10 14.06 Ю 4-4
{5}
н/о н/о +15.3 +15 +15 1017.8 1016.4
11 14.06 Ю 5-6
{6}
н/о н/о +15.7 +15 +15 1018.1 1016.6
12 14.06 Ю 5-5
{8}
н/о н/о +16.2 +15 +15 1018.5 1017.0 14
13 14.06 Ю 2-3
{5}
н/о н/о +16.7 +17 +17 1018.8 1017.4
14 14.06 ЮВ 2-3
{3}
н/о н/о +15.8 +14.8 94 +16 +16 1018.9 1017.5
15 14.06 В 3-3
{4}
н/о н/о +15.9 +16 +16 1018.5 1017.0
16 14.06 В 5-5
{5}
н/о н/о +15.5 +15 +15 1017.9 1016.5
17 14.06 В 3-4
{6}
н/о н/о +15.6 +15 +15 1018.6 1017.1
18 14.06 СВ 2-3
{6}
н/о н/о +15.8 +16 +16 1018.6 1017.1 +13.7 +17.0 9
19 14.06 С 3-3
{3}
н/о н/о +15.3 +15 +15 1018.5 1017.1
20 14.06 СВ 5-5
{5}
н/о н/о +15.1 +14 +14 1018.3 1016.9
21 14.06 СВ 4-5
{5}
н/о н/о +14.7 +14 +14 1018.6 1017.1
22 14.06 СВ 4-4
{6}
н/о н/о +14.3 +14 +14 1018.8 1017.3
23 14.06 СВ 4-5
{5}
н/о н/о +14.4 +14 +14 1019.1 1017.6
00 15.06 СВ 4-5
{6}
н/о н/о +14.0 +13 +13 1018.9 1017.5
01 15.06 СВ 5-7
{7}
н/о н/о +14.1 +13 +13 1018.8 1017.4
02 15.06 СВ 4-6
{8}
н/о н/о +14.2 +13 +13 1018.9 1017.4
03 15.06 СВ 5-6
{6}
н/о н/о +13.9 +13 +13 1018.6 1017.2
04 15.06 С 6-7
{7}
н/о н/о +13.7 +12 +12 1018.3 1016.9
05 15.06 СВ 6-8
{8}
н/о н/о +13.2 +12 +12 1018.0 1016.6
06 15.06 СВ 5-5
{8}
н/о н/о +14.2 +13 +13 1018.0 1016.6 +13.0 +15.9
07 15.06 СВ 8-10
{10}
н/о н/о +15.0 +13 +13 1017.9 1016.4
08 15.06 СВ 8-10
{10}
н/о н/о +15.9 +15.3 96 +14 +14 1017.3 1015.8
09 15.06 СВ 10-11
{12}
н/о н/о +16.0 +14 +14 1017.2 1015.7
10 15.06 СВ 11-13
{13}
н/о н/о +16.3 +15 +15 1016.4 1015.0
11 15.06 СВ 12-14
{14}
н/о н/о +17.1 +13.8 81 +15 +15 1015.6 1014.1
12 15.06 СВ 13-14
{15}
н/о н/о +17.2 +13.9 81 +15 +15 1015.0 1013.5 7
13 15.06 СВ 11 н/о н/о +16.9 +14.7 87 +15 +15 1015.1 1013.7
14 15.06 СВ 11-14
{14}
н/о н/о +17.5 +15.1 86 +16 +16 1014.4 1013.0
15 15.06 В 8-10
{14}
н/о н/о +17.3 +16.2 93 +16 +16 1014.7 1013.3
16 15.06 В 5-7
{8}
н/о н/о +17.0 +17.0 100 +16 +16 1014.6 1013.2
17 15.06 СВ 3-3
{6}
н/о н/о +16.8 +17 +17 1014.3 1012.9
18 15.06 ЮВ 4-6
{14}
н/о н/о +16.6 +16 +16 1014.3 1012.9 +14.1 +18.0 9
19 15.06 СВ 2-2
{4}
н/о н/о +16.4 +17 +17 1014.1 1012.6
20 15.06 С 2-3
{4}
н/о н/о +16.4 +17 +17 1013.9 1012.5
21 15.06 С 5-6
{6}
н/о н/о +16.6 +16 +16 1012.9 1011.5
22 15.06 СВ 5-5
{7}
н/о н/о +16.7 +16 +16 1012.8 1011.3
23 15.06 СВ 4-6
{6}
н/о н/о +17.0 +16.4 96 +16 +16 1013.1 1011.7
00 16.06 В 3-5
{7}
н/о н/о +15.8 +16 +16 1013.0 1011.5
01 16.06 В 4-5
{5}
н/о н/о +15.3 +15 +15 1012.5 1011.1
02 16.06 В 5-6
{6}
н/о н/о +15.3 +14 +14 1012.0 1010.6
03 16.06 ЮВ 4-4
{8}
н/о н/о +15.0 +14 +14 1012.2 1010.8
04 16.06 С 1-2
{3}
н/о н/о +14.9 +16 +16 1011.9 1010.4
05 16.06 С 2-2
{3}
н/о н/о +14.7 +15 +15 1012.2 1010.7
06 16.06 СЗ 1-2
{8}
н/о н/о +14.6 +16 +16 1012.5 1011.1 +14.4 +17.1
07 16.06 С 1-2
{3}
н/о н/о +14.8 +16 +16 1012.7 1011.3
08 16.06 Ю 2-3
{3}
н/о н/о +14.7 +15 +15 1013.4 1012.0
09 16.06 ЮЗ 6-7
{7}
н/о н/о +14.5 +13 +13 1013.7 1012.3
10 16.06 ЮЗ 8-9
{10}
н/о н/о +15.5 +14 +14 1013.8 1012.4
11 16.06 ЮЗ 9-11
{11}
н/о н/о +15.6 +14 +14 1014.1 1012.7
12 16.06 ЮЗ 13-15
{15}
н/о н/о +15.3 +13 +13 1014.5 1013.1 8
13 16.06 ЮЗ 15-17
{17}
н/о н/о +15.2 +14.7 97 +12 +12 1014.7 1013.2
14 16.06 ЮЗ 14-16
{17}
н/о н/о +15.3 +13 +13 1015.1 1013.7
15 16.06 ЮЗ 14-16
{17}
н/о н/о +14.5 +12 +12 1015.5 1014.0
16 16.06 ЮЗ 14-16
{17}
н/о н/о +14.4 +12 +12 1015.7 1014.3
17 16.06 ЮЗ 12-14
{17}
н/о н/о +14.2 +12 +12 1015.6 1014.1
18 16.06 ЮЗ 13-15
{17}
н/о н/о +14.2 +12 +12 1015.9 1014.5 +14.1 +15.7 6
19 16.06 ЮЗ 13-15
{15}
н/о н/о +14.5 +12 +12 1016.0 1014.6
20 16.06 ЮЗ 10-11
{15}
н/о н/о +14.5 +12 +12 1016.2 1014.8
21 16.06 ЮЗ 9-11
{13}
н/о н/о +13.9 +12 +12 1016.6 1015.1
22 16.06 ЮЗ 8-9
{10}
н/о н/о +13.6 +12 +12 1016.9 1015.4
23 16.06 ЮЗ 8-9
{10}
н/о н/о +13.1 +11 +11 1017.3 1015.8
00 17.06 ЮЗ 7-9
{15}
н/о н/о +12.5 +11 +11 1017.5 1016.1
01 17.06 ЮЗ 6-7
{8}
н/о н/о +12.1 +10 +10 1017.5 1016.0
02 17.06 ЮЗ 7-7
{7}
н/о н/о +12.0 +10 +10 1017.6 1016.1
03 17.06 ЮЗ 4-5
{7}
н/о н/о +11.9 +11 +11 1017.6 1016.1
04 17.06 З 3-4
{4}
н/о н/о +11.7 +11 +11 1017.8 1016.4
05 17.06 ЮЗ 4-5
{5}
н/о н/о +12.4 +11 +11 1018.1 1016.6
06 17.06 ЮЗ 4-5
{8}
н/о н/о +12.7 +12 +12 1018.1 1016.6 +11.3 +14.5 0.2
07 17.06 ЮЗ 5-6
{6}
н/о н/о +13.5 +12 +12 1018.2 1016.8
08 17.06 ЮЗ 5-6
{7}
н/о н/о +13.8 +13 +13 1018.2 1016.8
09 17.06 ЮЗ 5-6
{7}
н/о н/о +14.0 +13 +13 1018.4 1016.9
10 17.06 ЮЗ 4-6
{7}
н/о н/о +14.4 +14 +14 1018.3 1016.9
11 17.06 Ю 7-8
{8}
н/о н/о +14.7 +13 +13 1018.3 1016.9
12 17.06 Ю 6-7
{8}
н/о н/о +14.6 +13 +13 1018.2 1016.8 12
13 17.06 ЮЗ 8-9
{9}
н/о н/о +14.6 +13 +13 1018.2 1016.8
14 17.06 ЮЗ 7-9
{9}
н/о н/о +14.9 +13 +13 1017.8 1016.3
15 17.06 ЮЗ 11-12
{12}
н/о н/о +14.8 +13 +13 1017.4 1016.0
16 17.06 ЮЗ 11 н/о н/о +14.4 1017.1 1015.7
17 17.06 ЮЗ 11-13
{13}
н/о н/о +14.4 +12 +12 1017.2 1015.7
18 17.06 ЮЗ 10-12
{13}
н/о н/о +14.2 +12 +12 1017.4 1015.9 +12.7 +15.1 6
19 17.06 ЮЗ 10-12
{12}
н/о н/о +14.0 +12 +12 1017.4 1016.0
20 17.06 ЮЗ 9-11
{12}
н/о н/о +14.0 +12 +12 1017.6 1016.2

 

Местоположение метеостанции Маяк Torungen (Норвегия): широта 58.40 долгота 8.80 высота над уровнем моря 12 м.

В архиве по умолчанию представлена погода на Маяке Torungen за последнюю неделю. Архивные данные за месяц целиком и за предыдущие месяцы, начиная с января 2011 года, Вы можете получить, выбрав интересующий диапазон дат из раскрывающегося списка и нажав кнопку "Ввод!".


*Определитесь, кто Вы:
робот инопланетянин человек

Внимание! Время в таблицах - всемирное. Для получения местного времени необходимо прибавить поправку, которая равна 1 ч.

Смотрите также архив погоды в соседних городах и на ближайших метеорологических станциях:

Погода в Ландвике (Норвегия) (18 км)
Погода в Нелауге (Норвегия) (30 км)
Погода в Хюннеклейве (Норвегия) (31 км)
Погода на Маяке Lyngor (Норвегия) (33 км)
Погода в Кьевике (Норвегия) (48 км)
Погода в Гьерстаде (Норвегия) (54 км)
Погода на Маяке Oksoy (Норвегия) (57 км)
Погода в Бигландсфьорде (Норвегия) (66 км)
Погода в Йомфрулянде (Норвегия) (68 км)
Погода в Твейтсунде (Норвегия) (72 км)

Пояснения к столбцам:

Ветер - указаны скорость ветра в м/с - средняя за 10 мин, порывы в срок и между сроками (в фигурных скобках) и направление, откуда дует ветер: С - северный, СВ - северо-восточный, В - восточный, ЮВ - юго-восточный, Ю - южный, ЮЗ - юго-западный, З - западный, СЗ - северо-западный.
Видимость - горизонтальная дальность видимости в метрах или километрах. При видимости от 1 до 10 км при отсутствии осадков обычно наблюдается дымка, при ухудшении видимости до 1 км и менее - туман. В сухую погоду видимость может ухудшаться дымом, пылью или мглою.
Явления - указаны атмосферные явления, наблюдавшиеся в срок или в последний час перед сроком; фигурными скобками обозначены явления, наблюдавшиеся между сроками (за 1-3 часа до срока); квадратными скобками обозначены град или гололедные отложения с указанием их диаметра в мм.
Облачность - указаны через наклонную черту общая и нижняя облачность в баллах и высота нижней границы облаков в метрах; квадратными скобками обозначены формы облаков: Ci - перистые, Cs - перисто-слоистые, Cc - перисто-кучевые, Ac - высококучевые, As - высокослоистые, Sc - слоисто-кучевые, Ns - слоисто-дождевые, Cu - кучевые, Cb - кучево-дождевые. Подробнее классификацию облаков см. в Атласе облаков (PDF).
T - Температура воздуха - температура, измеренная на высоте 2 м над землей.
Td - Температура точки росы - температура, при понижении до которой содержащийся в воздухе водяной пар достигнет насыщения.
f - Относительная влажность воздуха - влажноcть воздуха, измеренная на высоте 2 м над землей.
Te - Эффективная температура - температура, которую ощущает одетый по сезону человек в тени. Характеристика душности погоды. При расчете учитывается влияние влажности воздуха и скорости ветра на теплоощущения человека.
Tes - Эффективная температура на солнце - температура, которую ощущает человек, с поправкой на солнечный нагрев. Характеристика знойности погоды. Зависит от высоты солнца над горизонтом, облачности и скорости ветра. Ночью, в пасмурную погоду, а также при ветре 12 м/с и более поправка равна нулю.
P - Атмосферное давление - приведенное к уровню моря атмосферное давление.
Po - Атмосферное давление - измеренное на уровне метеостанции атмосферное давление.
Tmin - Минимальная температура - минимум температуры воздуха на высоте 2 м над землей.
Tmax - Максимальная температура - максимум температуры воздуха на высоте 2 м над землей.
R - Количество осадков - Количество выпавших осадков за период времени, мм. При наведении курсора мыши на число - период времени, за который выпало указанное количество осадков.
R24 - Количество осадков - Количество выпавших осадков за 24 часа, мм.
S - Снежный покров - Высота снежного покрова, см. При наведении курсора мыши на число - состояние снежного покрова и степень покрытия местности в баллах.